map of MPL home
MPL - Airport
Location
City:  Montpellier, Languedoc-Roussillon, France
Name:Montpellier-Méditerranée Airport
Old (Alt.):Frejorgues Airport
ICAO:LFMT
IATA:MPL

Details
Type:Airport (Aerodrome, Airfield)
Use:Public/Civil, International (customs port of entry)
Latitude:43°35'00"N (43.583333)
Longitude:3°57'41"E (3.961389)
Elevation:17 ft (5 m)
Variation:1.21°E (WMM2015 magnetic declination)
0.12° annual change
Runways:2
Longest:8530 × 164 ft (2600 × 50 m), paved

Time
Time Zone:UTC+1 (DST+2)
Local Time:

Weather
METAR:LFMT 190130Z AUTO 34003KT 310V050 9999 VCTS ///CB 24/15 Q1017 BECMG NSW NSC
TAF:LFMT 182000Z 1821/1921 32012KT CAVOK
TEMPO 1821/1823 SHRA BKN030TCU
TEMPO 1910/1913 VRB02KT
TEMPO 1913/1918 34015G25KT

Related Locations
Nearby:
Farthest:CHT: 12409 mi / 19970 km
Waitangi [Tuuta], CIT, NZ

Find:

   beyond  
but within

Other Information
Maps:
NOTAMs:
Links:
Sources:

  
flag of France
flag of Languedoc-Roussillon
  

Sectional Chart

Flight Planning
at skyvector.com

Satellite Image

Google Maps Satellite view

 

Copyright © 2004-2017 Karl L. Swartz. All rights reserved.
The Great Circle Mapper name and logo are trademarks of the Great Circle Mapper.
All other trademarks mentioned herein belong to their respective owners.
Please see credits for attibutions and further copyright information.

  Follow gcmap on Facebook Follow gcmap on Twitter Follow gcmap on Google+ GCmap on LinkedIn

hCard Microformat

Geo Microformat